User: anonymous   Login
Location: Unspecified
(0.0000°N, 0.0000°E)
Time: 21:04:08
(UTC+00:00)
Language:

CANX 3B (BRITE-ASRA) - Orbit

View from above orbital plane
View from above orbital plane
View from above satellite
View from above satellite

Ground track
Ground track

The orbit data is extracted from the following two-line orbital elements,

1 39091U 13009F   15186.55853947  .00000150  00000-0  68342-4 0  9995
2 39091 098.6027 025.0597 0009361 258.9965 101.0167 14.34895998123290
Epoch (UTC): 05 July 2015 13:24:17
Eccentricity: 0.0009361
inclination: 98.6027°
perigee height: 769 km
apogee height: 782 km
right ascension of ascending node: 25.0597°
argument of perigee: 258.9965°
revolutions per day: 14.34895998
mean anomaly at epoch: 101.0167°
orbit number at epoch: 12329

The dashed part of the orbit path shows where the satellite is in the earth's shadow,  

DLR